Vorticity
5 6 6 6 5 5 5 5 4 3 3 3 5 6 7 7 10 9 9 6 7 2 5 7 12 10 3 1 3 7 5 7 -5 6 36 9 3 7 5 -3 6 17 6 4 5
9 8 8 8 8 8 8 8 8 7 7 7 5 2 2 6 6 10 11 5 11 5 2 1 5 15 15 2 -0 5 7 3 9 5 1 2 7 7 -7 26 10 8 5 5 4
10 10 10 10 10 10 10 9 9 8 6 6 7 9 7 3 3 5 7 14 5 13 6 4 0 -4 15 22 4 2 5 4 -12 -1 -0 -12 5 6 12 7 7 5 5 5 5
9 8 8 8 8 9 10 10 11 10 10 10 9 11 9 8 8 2 5 5 13 7 10 8 7 2 -3 9 15 3 6 -0 13 1 5 6 -10 11 11 16 -6 11 5 3 8
5 6 6 6 6 7 7 7 7 7 7 8 8 9 10 11 12 8 4 4 4 10 10 8 10 8 4 1 10 11 5 4 12 -15 9 4 -3 26 4 14 -8 18 5 4 11
5 6 4 5 5 6 7 8 6 7 6 5 5 6 6 7 7 11 10 8 2 3 8 12 6 10 10 2 3 9 7 5 9 7 7 -0 8 -4 8 9 -3 8 5 5 9
8 7 6 7 5 5 4 5 6 5 7 7 6 7 5 6 5 8 9 12 12 5 3 5 12 7 13 9 2 0 13 8 6 9 4 10 14 16 1 13 3 8 6 5 9
4 5 7 6 7 8 7 4 2 4 7 7 5 3 4 6 8 6 6 6 9 12 8 3 5 8 8 11 5 3 2 6 6 11 3 12 5 12 18 -29 -1 10 7 9 7
7 7 6 4 2 3 4 8 8 8 7 6 5 8 4 4 5 9 7 7 4 7 10 10 5 4 7 10 12 9 4 1 4 9 11 6 6 2 15 1 1 10 11 8 7
9 9 9 7 9 9 6 7 6 5 8 8 6 4 7 4 6 4 7 11 10 4 4 8 12 7 3 6 13 14 10 5 3 12 6 6 12 -0 -18 -35 7 14 14 8 9
13 13 14 13 16 15 11 11 9 9 9 7 9 8 5 5 6 6 7 2 11 8 6 5 4 11 13 6 5 13 -7 12 11 12 4 4 0 -2 -9 11 -5 9 10 10 9
10 11 9 9 6 9 11 15 12 11 9 8 9 9 9 10 4 2 4 8 6 9 10 7 6 6 8 10 3 4 12 -1 11 3 8 1 10 6 27 6 -10 -7 8 5 3
16 18 18 11 14 11 10 13 12 13 12 12 12 12 4 8 10 9 9 1 1 5 7 9 5 4 5 5 9 3 3 14 -10 5 10 9 11 -0 24 1 18 -3 5 4 3
14 14 21 21 14 12 9 8 11 17 16 15 8 10 9 11 8 8 7 8 6 3 6 4 10 7 3 6 4 10 6 6 4 -7 8 3 -15 20 -4 -5 57 -9 9 3 -1
19 11 15 15 16 17 15 12 10 11 20 18 13 13 10 12 11 10 11 9 9 9 7 7 7 9 8 5 3 5 10 3 7 8 -14 -6 18 -4 23 9 -11 -19 4 4 2
30 26 26 21 18 14 15 15 13 16 22 10 11 5 6 12 18 15 5 10 11 8 9 4 -1 7 7 7 7 3 3 10 3 4 5 6 -4 -0 -8 10 5 99 -8 -3 6
10 12 10 16 33 27 14 17 19 17 19 20 11 5 11 17 16 19 18 19 16 14 11 12 15 9 6 3 6 7 6 4 7 -0 3 7 10 6 -12 10 5 7 89 -11 1
15 14 14 12 4 25 31 18 21 -1 14 9 10 18 18 17 10 11 14 17 19 23 18 11 25 9 11 13 5 8 8 8 14 -0 7 9 11 12 19 -12 -4 29 4 22 1
14 12 14 13 11 8 39 17 -0 1 1 -16 16 23 19 19 9 16 17 14 15 17 5 13 15 26 39 33 4 13 24 11 2 10 27 -6 49 7 5 23 -14 1 5 19 -1
24 22 20 17 13 11 19 8 -0 23 30 16 13 11 7 18 26 25 12 11 5 10 15 26 15 -8 38 14 22 -5 -2 13 25 -7 -4 7 14 6 28 12 12 -4 5 25 8
15 21 22 22 22 19 8 8 18 25 16 16 14 11 7 6 -23 -2 2 23 6 12 10 12 17 18 -6 39 5 11 31 3 -10 8 25 -13 16 9 5 7 14 54 11 -4 -9
21 11 4 6 4 3 7 1 0 1 12 -2 6 8 9 7 12 10 -11 1 2 4 5 4 3 9 1 -17 42 18 6 24 -12 6 9 -7 15 5 18 22 15 19 17 14 5
9 5 7 8 7 7 5 12 8 16 18 22 30 34 34 34 25 14 11 15 -3 10 16 12 7 4 7 7 -36 16 14 34 7 51 3 -6 52 -17 -12 -2 9 21 45 42 19
5 11 8 5 6 10 12 15 13 12 13 15 -2 1 9 9 14 25 40 26 19 7 8 3 11 17 12 19 25 1 -3 22 -24 -6 56 -3 9 -4 -27 20 9 1 -2 12 2
11 9 3 9 11 10 11 6 9 8 5 10 -2 10 -6 -5 21 9 22 20 40 27 28 18 15 13 12 17 -6 8 -1 10 17 18 -19 28 15 18 15 3 6 3 -4 -1 3
3 0 7 11 7 8 5 7 11 9 9 13 15 22 26 -3 10 4 8 34 15 29 22 16 32 31 16 -0 14 8 5 13 10 -1 29 10 12 13 -8 16 28 23 11 3 5
8 1 10 9 6 10 9 13 5 -1 -1 2 -0 9 7 31 17 1 14 12 42 24 24 -2 22 32 35 20 22 12 7 -1 4 10 8 2 20 3 3 10 7 9 16 17 -1
Height
5864 5864 5863 5863 5862 5862 5862 5862 5861 5861 5861 5862 5862 5862 5863 5864 5864 5865 5866 5868 5870 5872 5873 5874 5875 5877 5880 5882 5884 5885 5886 5888 5886 5887 5878 5883 5885 5887 5890 5891 5892 5893 5896 5897 5897
5860 5859 5858 5858 5858 5858 5858 5857 5858 5857 5857 5858 5859 5860 5861 5862 5863 5863 5864 5865 5867 5869 5870 5872 5873 5875 5877 5880 5883 5883 5886 5888 5887 5886 5883 5882 5885 5886 5887 5888 5891 5895 5896 5897 5898
5855 5854 5854 5853 5853 5853 5853 5853 5853 5853 5853 5854 5855 5856 5857 5858 5861 5861 5861 5862 5864 5865 5867 5870 5872 5874 5875 5877 5880 5882 5884 5885 5884 5885 5887 5887 5888 5886 5889 5887 5890 5893 5896 5898 5898
5852 5851 5850 5849 5848 5848 5848 5848 5848 5848 5849 5849 5850 5851 5853 5854 5859 5856 5858 5859 5861 5863 5864 5867 5869 5871 5873 5875 5877 5881 5882 5883 5884 5887 5888 5889 5885 5884 5882 5871 5889 5892 5895 5897 5899
5848 5847 5846 5845 5844 5843 5843 5844 5844 5843 5844 5844 5845 5846 5847 5850 5853 5852 5854 5856 5858 5859 5861 5864 5866 5868 5871 5873 5874 5878 5881 5883 5884 5886 5886 5887 5884 5884 5875 5889 5891 5895 5892 5895 5897
5842 5841 5840 5840 5839 5839 5839 5839 5839 5839 5839 5840 5840 5842 5843 5845 5847 5848 5850 5852 5854 5856 5858 5860 5863 5865 5867 5870 5872 5874 5878 5881 5882 5884 5883 5885 5887 5887 5888 5889 5890 5890 5891 5895 5896
5836 5834 5833 5833 5833 5833 5833 5833 5833 5834 5834 5834 5835 5836 5838 5841 5842 5844 5846 5848 5850 5852 5855 5857 5859 5862 5864 5867 5870 5872 5875 5878 5880 5882 5883 5885 5886 5884 5883 5887 5888 5888 5891 5893 5894
5828 5827 5826 5825 5824 5825 5825 5825 5826 5827 5828 5829 5830 5830 5832 5834 5836 5839 5841 5843 5845 5847 5850 5853 5856 5858 5860 5863 5866 5869 5873 5875 5878 5880 5882 5883 5884 5883 5884 5858 5885 5889 5889 5891 5893
5818 5817 5816 5816 5816 5816 5816 5816 5817 5818 5819 5821 5823 5824 5826 5828 5830 5832 5835 5838 5840 5842 5845 5848 5851 5854 5857 5860 5863 5866 5870 5873 5876 5877 5879 5881 5882 5881 5885 5878 5884 5887 5887 5890 5893
5807 5805 5804 5804 5804 5805 5806 5806 5807 5809 5810 5812 5814 5817 5820 5822 5823 5826 5828 5831 5834 5837 5839 5843 5846 5849 5853 5857 5861 5864 5867 5870 5873 5876 5876 5877 5879 5879 5877 5878 5886 5884 5887 5889 5892
5795 5793 5792 5791 5791 5792 5795 5795 5798 5799 5801 5803 5806 5807 5811 5814 5817 5819 5822 5825 5827 5831 5834 5838 5841 5846 5850 5853 5856 5858 5860 5867 5870 5875 5875 5873 5875 5877 5877 5883 5885 5885 5887 5889 5892
5783 5782 5781 5780 5780 5781 5782 5783 5785 5788 5791 5792 5795 5797 5802 5804 5808 5811 5815 5818 5821 5825 5828 5831 5835 5840 5843 5846 5850 5853 5857 5860 5869 5874 5876 5871 5869 5874 5879 5880 5884 5881 5884 5888 5891
5771 5770 5769 5769 5769 5770 5770 5772 5774 5776 5779 5782 5785 5787 5793 5796 5798 5803 5806 5809 5813 5817 5820 5824 5831 5834 5837 5841 5844 5848 5853 5857 5861 5870 5872 5873 5861 5863 5869 5873 5867 5881 5881 5886 5890
5760 5758 5756 5756 5758 5758 5760 5762 5764 5766 5768 5769 5776 5776 5783 5785 5788 5793 5796 5801 5805 5809 5812 5817 5823 5825 5829 5834 5838 5842 5847 5851 5853 5858 5865 5865 5864 5857 5861 5861 5832 5859 5880 5885 5888
5750 5748 5746 5745 5746 5748 5750 5752 5754 5758 5759 5759 5763 5769 5771 5775 5777 5782 5788 5790 5795 5798 5804 5810 5813 5816 5821 5827 5831 5835 5840 5844 5848 5850 5854 5857 5858 5863 5855 5863 5855 5861 5878 5882 5885
5741 5738 5736 5736 5735 5737 5739 5742 5746 5751 5751 5751 5752 5757 5762 5765 5766 5770 5779 5780 5783 5788 5792 5797 5801 5807 5813 5817 5822 5827 5832 5836 5839 5843 5842 5850 5853 5858 5863 5860 5866 5863 5877 5877 5883
5737 5734 5732 5729 5728 5728 5730 5734 5740 5743 5745 5744 5745 5747 5753 5754 5758 5762 5766 5771 5775 5779 5783 5787 5793 5796 5801 5808 5813 5819 5823 5828 5831 5832 5837 5849 5847 5853 5860 5860 5862 5864 5859 5873 5877
5733 5729 5727 5725 5724 5723 5723 5729 5735 5743 5743 5737 5737 5743 5747 5746 5749 5752 5756 5760 5764 5768 5772 5776 5784 5786 5792 5800 5804 5808 5813 5818 5824 5829 5836 5841 5839 5847 5858 5860 5855 5859 5858 5859 5868
5729 5726 5724 5722 5721 5720 5720 5727 5734 5732 5730 5727 5735 5738 5740 5740 5744 5743 5749 5752 5755 5756 5761 5765 5771 5776 5780 5785 5793 5802 5801 5817 5818 5825 5827 5835 5838 5842 5848 5855 5859 5849 5852 5831 5858
5725 5723 5721 5719 5719 5720 5722 5724 5724 5723 5727 5729 5730 5731 5733 5741 5734 5738 5740 5742 5745 5743 5751 5759 5761 5765 5769 5774 5779 5785 5799 5802 5803 5809 5813 5824 5833 5841 5843 5849 5850 5850 5850 5853 5847
5725 5723 5720 5719 5719 5720 5721 5722 5721 5722 5723 5725 5724 5725 5726 5730 5729 5730 5732 5732 5732 5732 5743 5748 5750 5761 5763 5762 5769 5778 5785 5786 5792 5800 5806 5814 5822 5837 5846 5844 5846 5844 5847 5847 5847
5728 5724 5724 5723 5723 5721 5720 5720 5720 5719 5719 5718 5719 5718 5718 5718 5719 5719 5719 5724 5719 5725 5729 5735 5739 5746 5752 5758 5755 5764 5770 5780 5784 5790 5793 5803 5813 5830 5838 5838 5838 5839 5842 5839 5842
5730 5728 5726 5724 5722 5720 5719 5717 5715 5714 5712 5712 5712 5712 5712 5712 5712 5712 5711 5710 5707 5711 5713 5722 5731 5734 5745 5748 5749 5751 5761 5767 5772 5781 5784 5794 5804 5824 5830 5832 5832 5832 5834 5841 5836
5731 5729 5726 5723 5721 5718 5716 5713 5711 5709 5707 5706 5706 5705 5704 5702 5700 5699 5697 5695 5697 5697 5701 5706 5715 5720 5728 5741 5731 5738 5744 5752 5756 5763 5772 5779 5795 5813 5816 5813 5811 5817 5823 5834 5839
5730 5728 5725 5723 5719 5716 5713 5711 5709 5707 5705 5704 5703 5701 5699 5696 5694 5689 5684 5682 5684 5685 5686 5691 5696 5703 5710 5715 5713 5722 5728 5736 5742 5753 5759 5772 5783 5794 5790 5795 5801 5803 5809 5818 5828
5728 5727 5725 5721 5718 5715 5712 5710 5708 5705 5702 5700 5698 5695 5693 5691 5689 5684 5677 5674 5672 5673 5673 5676 5680 5687 5690 5697 5703 5710 5717 5723 5729 5737 5746 5752 5759 5776 5772 5783 5791 5796 5800 5804 5812
5728 5726 5723 5720 5716 5713 5711 5708 5704 5701 5699 5696 5694 5691 5687 5684 5681 5678 5673 5667 5666 5665 5666 5667 5669 5672 5678 5685 5689 5691 5703 5710 5717 5725 5731 5736 5754 5760 5758 5764 5780 5786 5789 5793 5800